Regional Weather Roundup
Issued by NWS

Home | Current Version | Previous Version | Graphics & Text | Print | Product List | Glossary Off
Versions: 1 2 3 4 5 6 7 8 9 10 11 12 13 14 15 16 17 18 19 20 21 22 23 24 25 26 27 28 29 30 31 32 33 34 35 36 37 38 39 40 41 42 43 44 45 46 47 48 49 50

000
ASUS45 KPSR 182110
RWRAZ

ARIZONA REGIONAL HOURLY WEATHER ROUNDUP
NATIONAL WEATHER SERVICE PHOENIX AZ
200 PM MST FRI APR 18 2014

NOTE: FAIR INDICATES FEW OR NO CLOUDS BELOW 12,000 FEET WITH NO
SIGNIFICANT WEATHER AND/OR OBSTRUCTIONS TO VISIBILITY.

AZZ001>003-036-182200-
NORTHWEST ARIZONA

CITY           SKY/WX    TMP DP  RH WIND       PRES   REMARKS
BULLHEAD CITY  CLOUDY    82  36  18 SW17G24   29.84F
KINGMAN        CLOUDY    75  25  15 S15G26    29.95S
$$

AZZ004>008-015-016-018-182200-
NORTH CENTRAL ARIZONA

CITY           SKY/WX    TMP DP  RH WIND       PRES   REMARKS
GRAND CANYON   CLOUDY    59  21  23 S10G25    30.11F
WILLIAMS       CLOUDY    57  25  28 S16G25    30.19R
PRESCOTT       CLOUDY    62  29  28 S18G25    30.06F
FLAGSTAFF      CLOUDY    56  26  31 SW20G31   30.14R
PAYSON         CLOUDY    63  30  29 SW12G21   30.14R
PAGE           CLOUDY    75  21  13 VRB6      29.94F
$$

AZZ009>014-017-182200-
NORTHEAST ARIZONA

CITY           SKY/WX    TMP DP  RH WIND       PRES   REMARKS
WINSLOW        CLOUDY    70  31  23 S21       30.04S
SAINT JOHNS    CLOUDY    71  21  15 W14       30.03F
WINDOW ROCK    CLOUDY    70  17  13 SW9G22    30.08F
SHOW LOW       CLOUDY    63  28  27 SW26G35   30.15R
$$

AZZ023-182200-
GREATER PHOENIX AREA

CITY           SKY/WX    TMP DP  RH WIND       PRES   REMARKS
PHOENIX        CLOUDY    80  40  23 VRB3      29.92S
BUCKEYE          N/A     81  37  21 S9G23     29.92R
GLENDALE       CLOUDY    82  39  21 SE12G21   29.93R
LUKE AFB       NOT AVBL
DEER VALLEY    CLOUDY    78  38  23 SE15      29.93F
SCOTTSDALE     CLOUDY    78  40  25 S6        29.96S
MESA-FALCON    CLOUDY    79  36  21 SE8       29.95R
MESA-GATEWAY   CLOUDY    79  37  22 SW8       29.97R
CHANDLER       CLOUDY    81  39  22 S8        29.95R
$$

AZZ027-028-182200-
SOUTHWEST MARICOPA COUNTY AND PINAL COUNTY

CITY           SKY/WX    TMP DP  RH WIND       PRES   REMARKS
CASA GRANDE    CLOUDY    79  37  22 CALM      29.95F
GILA BEND      CLOUDY    81  37  21 VRB7      29.90S
$$

AZZ503-504-507>509-182200-
SOUTHEAST ARIZONA

CITY           SKY/WX    TMP DP  RH WIND       PRES   REMARKS
TUCSON         CLOUDY    76  35  22 NE3       30.01F
DAVIS-MONTHAN  CLOUDY    74  38  27 E5        30.00F
RYAN FIELD       N/A     75  30  19 MISG      30.00
NOGALES        LGT RAIN  70  41  34 N14       30.01F
SIERRA VISTA   PTSUNNY   68  36  30 VRB6      30.06F
DOUGLAS        CLOUDY    73  32  22 MISG      30.04F
SAFFORD        CLOUDY    78  25  14 W12       30.00R
$$

AZZ020-021-025-026-031-182200-
SOUTHWEST ARIZONA

CITY           SKY/WX    TMP DP  RH WIND       PRES   REMARKS
YUMA           CLOUDY    86  41  20 S18       29.82S
$$

CAZ031-033-041-043-047-048-061-182200-
SOUTHERN CALIFORNIA

CITY           SKY/WX    TMP DP  RH WIND       PRES   REMARKS
DOWNTOWN L.A.  PTSUNNY   70  53  54 VRB6      29.89F
L.A. AIRPORT   PTSUNNY   68  54  60 SW13      29.91S
SAN DIEGO      PTSUNNY   67  53  61 SW12      29.92F
BURBANK        MOSUNNY   70  49  47 S8        29.89F
ONTARIO        PTSUNNY   72  48  42 SW9       29.89F
RIVERSIDE      PTSUNNY   72  50  45 VRB5      29.89F
PALM SPRINGS   PTSUNNY   82  42  24 SE8       29.84F
EL CENTRO NAS  PTSUNNY   82  54  37 VRB3      29.80F
IMPERIAL       CLOUDY    83  53  35 VRB5      29.80F
BLYTHE         CLOUDY    83  40  21 S7        29.83F
NEEDLES        CLOUDY    85  33  15 SE13G20   29.84F
$$

NVZ020-UTZ003-182200-
SOUTHERN NEVADA-UTAH

CITY           SKY/WX    TMP DP  RH WIND       PRES   REMARKS
LAS VEGAS      CLOUDY    79  25  13 S9G21     29.83F
SALT LAKE CITY CLOUDY    61  40  45 N14       29.98R
$$

NMZ009-TXZ055-182200-
NEW MEXICO-WEST TEXAS

CITY           SKY/WX    TMP DP  RH WIND       PRES   REMARKS
ALBUQUERQUE    CLOUDY    74  24  15 S8        30.06F
EL PASO        CLOUDY    81  33  17 SE12G24   30.01F
$$


........................KEY........................
SKY/WX - SKY CONDITION/WEATHER
TMP    - TEMPERATURE IN FAHRENHEIT
DP     - DEW POINT IN FAHRENHEIT
RH     - RELATIVE HUMIDITY IN PERCENT
WIND   - DIRECTION AND SPEED IN MILES PER HOUR (MPH)
VRB    - VARIABLE WIND DIRECTION
PRES   - MEAN SEA LEVEL PRESSURE IN INCHES OF MERCURY
         F - FALLING PRESSURE   R - RISING PRESSURE
         S - STEADY PRESSURE
VSB    - VISIBILITY IN MILES
HX     - HEAT INDEX IN FAHRENHEIT
WCI    - WIND CHILL INDEX IN FAHRENHEIT
TC     - TEMPERATURE IN CELSIUS WHICH IS ALSO KNOWN AS
         TEMPERATURE IN CENTIGRADE
AFB    - AIR FORCE BASE
         LUKE AFB IS LUKE AIR FORCE BASE
         DAVIS-MONTHAN IS DAVIS-MONTHAN AIR FORCE BASE
NAS    - NAVAL AIR STATION
         EL CENTRO NAS IS EL CENTRO NAVAL AIR STATION
N/A    - NOT AVAILABLE



USA.gov is the U.S. government's official web portal to all federal, state and local government web resources and services.